Regional Weather Roundup
Issued by NWS Cleveland, OH

Home | Current Version | Previous Version | Text Only | Print | Product List | Glossary Off
Versions: 1 2 3 4 5 6 7 8 9 10 11 12 13 14 15 16 17 18 19 20 21 22 23 24 25 26 27 28 29 30 31 32 33 34 35 36 37 38 39 40 41 42 43 44 45 46 47 48 49 50

000
ASUS41 KCLE 251610
RWRCLE
OHIO REGIONAL WEATHER ROUNDUP
NATIONAL WEATHER SERVICE CLEVELAND, OH
1200 PM EDT MON SEP 25 2017

NOTE: "FAIR" INDICATES FEW OR NO CLOUDS BELOW 12,000 FEET WITH NO
SIGNIFICANT WEATHER AND/OR OBSTRUCTIONS TO VISIBILITY.

OHZ001>008-015>018-024>027-034-035-043-044-251700-
   NORTHWEST OHIO

CITY           SKY/WX    TMP DP  RH WIND       PRES   REMARKS
DEFIANCE       SUNNY     84  59  42 CALM      30.06F
FINDLAY        SUNNY     85  61  44 CALM      30.06F
TOLEDO EXPRESS SUNNY     85  65  51 CALM      30.06F
TOLEDO EXEC    SUNNY     85  64  49 CALM      30.07S
LIMA           SUNNY     84  61  45 CALM      30.07F
$$

OHZ009>014-019>023-028>033-038-089-251700-
   NORTHEAST OHIO

CITY           SKY/WX    TMP DP  RH WIND       PRES   REMARKS
CLE-HOPKINS    MOSUNNY   90  63  40 SE8       30.09S HX  91
CLE-LAKEFRONT  MOSUNNY   80  68  66 NE8       30.06F
CUY CO. ARPT   MOSUNNY   88  66  48 SE12      30.09F HX  90
LORAIN-ELYRIA  SUNNY     85  60  42 S9        30.08F
ASHTABULA      SUNNY     85  66  53 S7        30.11F
AKRON-CANTON   MOSUNNY   85  63  47 S7        30.11F
WOOSTER        MOSUNNY   84  63  49 SE5       30.10F
MANSFIELD      SUNNY     85  62  46 SE6       30.10F
YOUNGSTOWN     PTSUNNY   84  66  54 VRB3      30.12S
$$

OHZ042-051>053-060>062-070>072-077>081-251700-
  SOUTHWEST OHIO

CITY           SKY/WX    TMP DP  RH WIND       PRES   REMARKS
CINC-COVINGTON PTSUNNY   82  64  54 W3        30.07F
CINC-LUNKEN    MOSUNNY   82  64  54 CALM      30.06F
HAMILTON       SUNNY     84  64  50 CALM      30.07F
DAYTON         PTSUNNY   82  62  50 CALM      30.08F
WRIGHT-PAT AFB SUNNY     82  64  55 CALM      30.07F
DAYTON GENERAL SUNNY     83  64  52 CALM      30.07F
WILMINGTON     SUNNY     83  66  56 VRB5      30.07F
$$

OHZ036-037-039>041-045>050-054>059-063>069-073>076-082>088-251700-
  CENTRAL AND SOUTHEAST OHIO

CITY           SKY/WX    TMP DP  RH WIND       PRES   REMARKS
COLUMBUS       MOSUNNY   82  67  60 SE3       30.07S
OSU AIRPORT    SUNNY     82  66  58 CALM      30.07F
BOLTON FIELD   SUNNY     82  66  57 CALM      30.08F
RICKENBACK AFB SUNNY     81  64  56 CALM      30.06F
NEWARK         MOSUNNY   82  65  56 CALM      30.07F
MARION         SUNNY     85  61  44 CALM      30.08F
LANCASTER      MOSUNNY   80  67  64 E3        30.08F
ZANESVILLE     MOSUNNY   83  64  52 CALM      30.08F
NEW PHILLY     NOT AVBL
$$




USA.gov is the U.S. government's official web portal to all federal, state and local government web resources and services.